| time (UTC) | temp C | wind direction | speed KPH | gust KPH | rain 1hr cm | rain 24hr cm | rain mn cm | humidity % | barometer mb |
| 20260505051816 | 15 | 52 | 0.0 | 0.0 | 0.00 | 0.00 | 0.00 | 68 | 1011.9 |
| 20260505051314 | 15 | 41 | 0.0 | 0.0 | 0.00 | 0.00 | 0.00 | 68 | 1012.0 |
| 20260505050812 | 15 | 41 | 0.0 | 0.0 | 0.00 | 0.00 | 0.00 | 69 | 1011.9 |
| 20260505050310 | 15 | 279 | 0.0 | 0.0 | 0.00 | 0.00 | 0.00 | 70 | 1012.0 |
| 20260505041740 | 15 | 33 | 0.0 | 0.0 | 0.00 | 0.00 | 0.00 | 73 | 1011.9 |
| 20260505041237 | 15 | 41 | 0.0 | 0.0 | 0.00 | 0.00 | 0.00 | 73 | 1011.8 |
| 20260505040734 | 15 | 46 | 0.0 | 0.0 | 0.00 | 0.00 | 0.00 | 73 | 1011.9 |
| 20260505040232 | 15 | 53 | 0.0 | 0.0 | 0.00 | 0.00 | 0.00 | 73 | 1011.9 |
| 20260505035728 | 15 | 54 | 0.0 | 1.6 | 0.00 | 0.00 | 0.00 | 73 | 1011.7 |
| 20260505035224 | 15 | 58 | 0.0 | 0.0 | 0.00 | 0.00 | 0.00 | 74 | 1011.7 |
| 20260505034721 | 16 | 52 | 0.0 | 0.0 | 0.00 | 0.00 | 0.00 | 72 | 1011.9 |
| 20260505034218 | 16 | 15 | 0.0 | 1.6 | 0.00 | 0.00 | 0.00 | 72 | 1011.7 |
| 20260505033714 | 16 | 106 | 1.6 | 1.6 | 0.00 | 0.00 | 0.00 | 71 | 1011.6 |
| 20260505033213 | 16 | 69 | 1.6 | 1.6 | 0.00 | 0.00 | 0.00 | 72 | 1011.6 |
| 20260505032711 | 16 | 44 | 0.0 | 0.0 | 0.00 | 0.00 | 0.00 | 71 | 1011.6 |
| 20260505032206 | 16 | 53 | 0.0 | 0.0 | 0.00 | 0.00 | 0.00 | 71 | 1011.5 |
| 20260505031704 | 16 | 41 | 1.6 | 1.6 | 0.00 | 0.00 | 0.00 | 70 | 1011.7 |
| 20260505031200 | 16 | 47 | 0.0 | 0.0 | 0.00 | 0.00 | 0.00 | 69 | 1011.7 |
| 20260505030657 | 17 | 44 | 1.6 | 1.6 | 0.00 | 0.00 | 0.00 | 68 | 1011.8 |
| 20260505030152 | 17 | 161 | 4.8 | 4.8 | 0.00 | 0.00 | 0.00 | 67 | 1011.7 |
| 20260505025649 | 17 | 112 | 3.2 | 4.8 | 0.00 | 0.00 | 0.00 | 67 | 1011.7 |
| 20260505025147 | 17 | 61 | 1.6 | 1.6 | 0.00 | 0.00 | 0.00 | 66 | 1011.8 |
| 20260505024644 | 17 | 56 | 3.2 | 3.2 | 0.00 | 0.00 | 0.00 | 65 | 1011.8 |
| 20260505024142 | 17 | 107 | 1.6 | 1.6 | 0.00 | 0.00 | 0.00 | 65 | 1011.5 |
| 20260505023639 | 17 | 147 | 1.6 | 1.6 | 0.00 | 0.00 | 0.00 | 62 | 1011.8 |
| 20260505023136 | 17 | 202 | 3.2 | 4.8 | 0.00 | 0.00 | 0.00 | 62 | 1011.6 |
| 20260505022634 | 17 | 64 | 0.0 | 1.6 | 0.00 | 0.00 | 0.00 | 62 | 1011.7 |
| 20260505022131 | 17 | 132 | 1.6 | 1.6 | 0.00 | 0.00 | 0.00 | 63 | 1011.7 |
| 20260505021627 | 17 | 12 | 0.0 | 0.0 | 0.00 | 0.00 | 0.00 | 62 | 1011.5 |
| 20260505021124 | 17 | 35 | 0.0 | 0.0 | 0.00 | 0.00 | 0.00 | 61 | 1011.6 |
| 20260505020619 | 17 | 12 | 0.0 | 0.0 | 0.00 | 0.00 | 0.00 | 62 | 1011.7 |
| 20260505020116 | 17 | 47 | 1.6 | 1.6 | 0.00 | 0.00 | 0.00 | 61 | 1011.6 |
| 20260505015613 | 17 | 76 | 1.6 | 1.6 | 0.00 | 0.00 | 0.00 | 62 | 1011.6 |
| 20260505015110 | 17 | 92 | 0.0 | 1.6 | 0.00 | 0.00 | 0.00 | 64 | 1011.5 |
| 20260505014606 | 17 | 29 | 0.0 | 0.0 | 0.00 | 0.00 | 0.00 | 63 | 1011.4 |
| 20260505014103 | 17 | 47 | 0.0 | 0.0 | 0.00 | 0.00 | 0.00 | 64 | 1011.4 |
| 20260505013601 | 16 | 62 | 0.0 | 1.6 | 0.00 | 0.00 | 0.00 | 67 | 1011.4 |
| 20260505013058 | 16 | 69 | 0.0 | 0.0 | 0.00 | 0.00 | 0.00 | 67 | 1011.6 |
| 20260505012556 | 16 | 53 | 0.0 | 0.0 | 0.00 | 0.00 | 0.00 | 67 | 1011.5 |
| 20260505012053 | 16 | 55 | 0.0 | 0.0 | 0.00 | 0.00 | 0.00 | 67 | 1011.4 |
| 20260505011548 | 16 | 55 | 0.0 | 0.0 | 0.00 | 0.00 | 0.00 | 66 | 1011.4 |
| 20260505011046 | 16 | 49 | 0.0 | 0.0 | 0.00 | 0.00 | 0.00 | 67 | 1011.4 |
| 20260505010541 | 16 | 51 | 0.0 | 0.0 | 0.00 | 0.00 | 0.00 | 68 | 1011.4 |
| 20260505010038 | 16 | 46 | 0.0 | 0.0 | 0.00 | 0.00 | 0.00 | 67 | 1011.3 |
| 20260505005534 | 16 | 41 | 0.0 | 0.0 | 0.00 | 0.00 | 0.00 | 66 | 1011.2 |
| 20260505005032 | 17 | 48 | 0.0 | 0.0 | 0.00 | 0.00 | 0.00 | 65 | 1011.2 |
| 20260505004529 | 17 | 50 | 0.0 | 0.0 | 0.00 | 0.00 | 0.00 | 64 | 1011.1 |
| 20260505004025 | 17 | 51 | 0.0 | 0.0 | 0.00 | 0.00 | 0.00 | 64 | 1011.1 |
| 20260505003523 | 17 | 42 | 0.0 | 0.0 | 0.00 | 0.00 | 0.00 | 63 | 1011.2 |
| 20260505003020 | 17 | 53 | 0.0 | 0.0 | 0.00 | 0.00 | 0.00 | 64 | 1011.2 |
| 20260505002515 | 17 | 44 | 0.0 | 0.0 | 0.00 | 0.00 | 0.00 | 63 | 1011.2 |
| 20260505002014 | 17 | 18 | 0.0 | 0.0 | 0.00 | 0.00 | 0.00 | 62 | 1011.2 |
| 20260505001511 | 18 | 34 | 0.0 | 0.0 | 0.00 | 0.00 | 0.00 | 60 | 1011.2 |
| 20260505001008 | 18 | 52 | 0.0 | 0.0 | 0.00 | 0.00 | 0.00 | 59 | 1011.0 |
| 20260505000505 | 18 | 17 | 0.0 | 1.6 | 0.00 | 0.00 | 0.00 | 58 | 1011.1 |
| 20260505000003 | 18 | 34 | 1.6 | 1.6 | 0.00 | 0.00 | 0.00 | 57 | 1011.1 |
| 20260504235459 | 18 | 61 | 0.0 | 0.0 | 0.00 | 0.00 | 0.00 | 57 | 1011.3 |
| 20260504234956 | 19 | 60 | 1.6 | 1.6 | 0.00 | 0.00 | 0.00 | 55 | 1011.4 |
| 20260504234453 | 19 | 59 | 0.0 | 0.0 | 0.00 | 0.00 | 0.00 | 54 | 1011.2 |
| 20260504233949 | 20 | 60 | 0.0 | 0.0 | 0.00 | 0.00 | 0.00 | 54 | 1011.1 |
| 20260504233445 | 20 | 66 | 1.6 | 3.2 | 0.00 | 0.00 | 0.00 | 51 | 1011.1 |
| 20260504232942 | 20 | 66 | 1.6 | 1.6 | 0.00 | 0.00 | 0.00 | 51 | 1011.0 |
| 20260504232439 | 20 | 86 | 1.6 | 1.6 | 0.00 | 0.00 | 0.00 | 50 | 1011.1 |
| 20260504231937 | 20 | 74 | 1.6 | 3.2 | 0.00 | 0.00 | 0.00 | 50 | 1010.9 |
| 20260504231433 | 20 | 135 | 0.0 | 1.6 | 0.00 | 0.00 | 0.00 | 51 | 1011.1 |
| 20260504230929 | 20 | 60 | 0.0 | 1.6 | 0.00 | 0.00 | 0.00 | 49 | 1011.3 |
| 20260504230426 | 20 | 188 | 4.8 | 6.4 | 0.00 | 0.00 | 0.00 | 47 | 1011.3 |
| 20260504225925 | 20 | 79 | 1.6 | 1.6 | 0.00 | 0.00 | 0.00 | 49 | 1011.0 |
| 20260504225422 | 20 | 108 | 1.6 | 1.6 | 0.00 | 0.00 | 0.00 | 47 | 1011.1 |
| 20260504224919 | 21 | 174 | 6.4 | 6.4 | 0.00 | 0.00 | 0.00 | 47 | 1011.2 |
| 20260504224415 | 21 | 97 | 6.4 | 9.7 | 0.00 | 0.00 | 0.00 | 46 | 1011.0 |
| 20260504223913 | 21 | 159 | 3.2 | 4.8 | 0.00 | 0.00 | 0.00 | 46 | 1011.1 |
| 20260504223408 | 21 | 68 | 0.0 | 1.6 | 0.00 | 0.00 | 0.00 | 46 | 1011.2 |
| 20260504222904 | 21 | 136 | 3.2 | 3.2 | 0.00 | 0.00 | 0.00 | 45 | 1011.1 |
| 20260504222401 | 21 | 50 | 1.6 | 3.2 | 0.00 | 0.00 | 0.00 | 47 | 1011.0 |
| 20260504221900 | 21 | 148 | 8.0 | 11.3 | 0.00 | 0.00 | 0.00 | 43 | 1010.9 |
| 20260504221356 | 21 | 134 | 3.2 | 4.8 | 0.00 | 0.00 | 0.00 | 46 | 1011.1 |
| 20260504220854 | 22 | 205 | 3.2 | 4.8 | 0.00 | 0.00 | 0.00 | 43 | 1010.9 |
| 20260504220350 | 22 | 3 | 1.6 | 3.2 | 0.00 | 0.00 | 0.00 | 43 | 1010.8 |
| 20260504215847 | 22 | 134 | 9.7 | 16.1 | 0.00 | 0.00 | 0.00 | 42 | 1011.0 |
| 20260504215343 | 22 | 173 | 9.7 | 12.9 | 0.00 | 0.00 | 0.00 | 42 | 1011.0 |
| 20260504214840 | 22 | 71 | 1.6 | 1.6 | 0.00 | 0.00 | 0.00 | 44 | 1010.9 |
| 20260504214337 | 22 | 107 | 6.4 | 6.4 | 0.00 | 0.00 | 0.00 | 42 | 1010.9 |
| 20260504213833 | 22 | 178 | 3.2 | 4.8 | 0.00 | 0.00 | 0.00 | 42 | 1010.8 |
| 20260504213329 | 22 | 69 | 0.0 | 1.6 | 0.00 | 0.00 | 0.00 | 42 | 1011.0 |
| 20260504212827 | 22 | 61 | 1.6 | 1.6 | 0.00 | 0.00 | 0.00 | 42 | 1011.0 |
| 20260504212323 | 22 | 37 | 3.2 | 3.2 | 0.00 | 0.00 | 0.00 | 41 | 1011.0 |
| 20260504211821 | 22 | 59 | 0.0 | 1.6 | 0.00 | 0.00 | 0.00 | 43 | 1010.9 |
| 20260504211316 | 22 | 123 | 4.8 | 6.4 | 0.00 | 0.00 | 0.00 | 42 | 1010.9 |
| 20260504210814 | 23 | 169 | 8.0 | 11.3 | 0.00 | 0.00 | 0.00 | 40 | 1011.0 |
| 20260504210311 | 23 | 147 | 3.2 | 3.2 | 0.00 | 0.00 | 0.00 | 42 | 1011.0 |
| 20260504205808 | 23 | 105 | 3.2 | 4.8 | 0.00 | 0.00 | 0.00 | 40 | 1011.0 |
| 20260504205306 | 23 | 120 | 4.8 | 4.8 | 0.00 | 0.00 | 0.00 | 41 | 1011.1 |
| 20260504204804 | 24 | 161 | 4.8 | 4.8 | 0.00 | 0.00 | 0.00 | 41 | 1011.0 |
| 20260504204302 | 24 | 105 | 1.6 | 1.6 | 0.00 | 0.00 | 0.00 | 38 | 1011.1 |
| 20260504203801 | 24 | 29 | 0.0 | 1.6 | 0.00 | 0.00 | 0.00 | 39 | 1010.9 |
| 20260504203258 | 25 | 67 | 0.0 | 1.6 | 0.00 | 0.00 | 0.00 | 39 | 1011.2 |
| 20260504202758 | 25 | 116 | 3.2 | 4.8 | 0.00 | 0.00 | 0.00 | 35 | 1011.3 |
| 20260504202256 | 25 | 155 | 8.0 | 12.9 | 0.00 | 0.00 | 0.00 | 34 | 1011.2 |
| 20260504201752 | 25 | 24 | 1.6 | 3.2 | 0.00 | 0.00 | 0.00 | 37 | 1011.2 |
| 20260504201249 | 24 | 46 | 0.0 | 0.0 | 0.00 | 0.00 | 0.00 | 41 | 1011.2 |
| 20260504200748 | 25 | 341 | 6.4 | 9.7 | 0.00 | 0.00 | 0.00 | 34 | 1011.5 |
| 20260504200243 | 25 | 106 | 3.2 | 4.8 | 0.00 | 0.00 | 0.00 | 36 | 1011.4 |
| 20260504195740 | 25 | 99 | 6.4 | 11.3 | 0.00 | 0.00 | 0.00 | 35 | 1011.5 |
| 20260504195236 | 25 | 328 | 1.6 | 3.2 | 0.00 | 0.00 | 0.00 | 38 | 1011.5 |
| 20260504194733 | 24 | 36 | 1.6 | 3.2 | 0.00 | 0.00 | 0.00 | 37 | 1011.7 |
| 20260504194229 | 24 | 307 | 3.2 | 6.4 | 0.00 | 0.00 | 0.00 | 34 | 1011.6 |
| 20260504193725 | 25 | 94 | 1.6 | 1.6 | 0.00 | 0.00 | 0.00 | 35 | 1011.8 |
| 20260504193223 | 25 | 350 | 6.4 | 6.4 | 0.00 | 0.00 | 0.00 | 35 | 1012.0 |
| 20260504192721 | 25 | 116 | 0.0 | 1.6 | 0.00 | 0.00 | 0.00 | 39 | 1011.9 |
| 20260504192219 | 24 | 25 | 0.0 | 1.6 | 0.00 | 0.00 | 0.00 | 38 | 1012.1 |
| 20260504191717 | 25 | 139 | 4.8 | 4.8 | 0.00 | 0.00 | 0.00 | 35 | 1012.1 |
| 20260504191214 | 25 | 330 | 1.6 | 3.2 | 0.00 | 0.00 | 0.00 | 36 | 1012.1 |
| 20260504190709 | 25 | 35 | 0.0 | 1.6 | 0.00 | 0.00 | 0.00 | 36 | 1012.3 |
| 20260504190206 | 24 | 19 | 1.6 | 1.6 | 0.00 | 0.00 | 0.00 | 39 | 1012.4 |
| 20260504185702 | 24 | 270 | 1.6 | 3.2 | 0.00 | 0.00 | 0.00 | 37 | 1012.4 |
| 20260504185159 | 24 | 55 | 1.6 | 3.2 | 0.00 | 0.00 | 0.00 | 40 | 1012.5 |
| 20260504184655 | 24 | 58 | 1.6 | 3.2 | 0.00 | 0.00 | 0.00 | 34 | 1012.5 |
| 20260504184150 | 24 | 54 | 1.6 | 1.6 | 0.00 | 0.00 | 0.00 | 37 | 1012.6 |
| 20260504183647 | 23 | 133 | 1.6 | 1.6 | 0.00 | 0.00 | 0.00 | 37 | 1012.8 |
| 20260504183145 | 24 | 137 | 6.4 | 6.4 | 0.00 | 0.00 | 0.00 | 37 | 1012.7 |
| 20260504182642 | 25 | 344 | 0.0 | 1.6 | 0.00 | 0.00 | 0.00 | 34 | 1012.8 |
| 20260504182140 | 23 | 35 | 1.6 | 3.2 | 0.00 | 0.00 | 0.00 | 36 | 1012.6 |
| 20260504181637 | 23 | 120 | 1.6 | 3.2 | 0.00 | 0.00 | 0.00 | 36 | 1012.8 |
| 20260504181134 | 23 | 327 | 1.6 | 3.2 | 0.00 | 0.00 | 0.00 | 35 | 1012.9 |
| 20260504180634 | 23 | 65 | 1.6 | 3.2 | 0.00 | 0.00 | 0.00 | 36 | 1012.9 |
| 20260504180132 | 23 | 23 | 1.6 | 1.6 | 0.00 | 0.00 | 0.00 | 36 | 1013.0 |
| 20260504175629 | 23 | 142 | 4.8 | 4.8 | 0.00 | 0.00 | 0.00 | 34 | 1013.2 |
| 20260504175125 | 23 | 30 | 6.4 | 11.3 | 0.00 | 0.00 | 0.00 | 35 | 1013.2 |
| 20260504174624 | 23 | 87 | 0.0 | 1.6 | 0.00 | 0.00 | 0.00 | 33 | 1013.1 |
| 20260504174119 | 23 | 91 | 1.6 | 1.6 | 0.00 | 0.00 | 0.00 | 34 | 1013.2 |
| 20260504173617 | 23 | 0 | 1.6 | 1.6 | 0.00 | 0.00 | 0.00 | 41 | 1013.4 |
| 20260504173115 | 23 | 59 | 8.0 | 12.9 | 0.00 | 0.00 | 0.00 | 34 | 1013.3 |
| 20260504172611 | 23 | 129 | 6.4 | 6.4 | 0.00 | 0.00 | 0.00 | 35 | 1013.5 |
| 20260504172107 | 22 | 21 | 1.6 | 1.6 | 0.00 | 0.00 | 0.00 | 36 | 1013.6 |
| 20260504171603 | 23 | 67 | 0.0 | 1.6 | 0.00 | 0.00 | 0.00 | 39 | 1013.6 |
| 20260504171101 | 22 | 204 | 6.4 | 11.3 | 0.00 | 0.00 | 0.00 | 33 | 1013.6 |
| 20260504170556 | 23 | 355 | 1.6 | 3.2 | 0.00 | 0.00 | 0.00 | 34 | 1013.6 |
| 20260504150940 | 21 | 223 | 6.4 | 9.7 | 0.00 | 0.00 | 0.00 | 37 | 1015.1 |
| 20260504150437 | 20 | 315 | 1.6 | 1.6 | 0.00 | 0.00 | 0.00 | 46 | 1014.9 |
| 20260504140904 | 18 | 23 | 1.6 | 1.6 | 0.00 | 0.00 | 0.00 | 46 | 1015.3 |
| 20260504140359 | 18 | 38 | 0.0 | 0.0 | 0.00 | 0.00 | 0.00 | 50 | 1015.3 |
| 20260504130325 | 15 | 352 | 1.6 | 1.6 | 0.00 | 0.00 | 0.00 | 52 | 1015.5 |
| 20260504120248 | 12 | 146 | 3.2 | 6.4 | 0.00 | 0.00 | 0.00 | 59 | 1015.9 |
| 20260504110715 | 10 | 64 | 0.0 | 0.0 | 0.00 | 0.00 | 0.00 | 69 | 1016.1 |
| 20260504110212 | 10 | 23 | 0.0 | 0.0 | 0.00 | 0.00 | 0.00 | 69 | 1016.1 |
| 20260504100136 | 10 | 4 | 0.0 | 0.0 | 0.00 | 0.00 | 0.00 | 70 | 1016.2 |
| 20260504081529 | 9 | 21 | 0.0 | 0.0 | 0.00 | 0.00 | 0.00 | 69 | 1016.5 |
| 20260504081025 | 8 | 354 | 0.0 | 0.0 | 0.00 | 0.00 | 0.00 | 70 | 1016.5 |
| 20260504080521 | 8 | 21 | 0.0 | 0.0 | 0.00 | 0.00 | 0.00 | 69 | 1016.4 |